Location: Fours
(44.3167°N, 6.7000°E)
Time: 04:44:57
(UTC+00:00)

CZ-4B R/B - Pass Details

Date: 30 November 2020
Orbit: 389 x 457 km, 97.6° (Epoch: 24 January)

Event Time Altitude Azimuth Distance (km) Brightness Sun altitude
Exits shadow 17:39:07 17° 359° (N) 1,118 3.3 -18.0°
Maximum altitude 17:41:20 54° 285° (WNW) 503 1.9 -18.4°
Drops below altitude 10° 17:44:25 10° 208° (SSW) 1,479 4.5 -18.9°
Sets 17:46:26 0° 203° (SSW) 2,348 5.6 -19.3°
